リニア彗星

C/2017 B3 ( LINEAR )

English version
Home page
Updated on December 9, 2019

---------------------------------------------------------------------

・ プロフィール

発見日 2017年1月26日
発見光度 19.2等
発見者 LINEAR survey (Space Surveillance Telescope, Atom Peak, White Sands Missile Range, NM, USA)

・ 写真集

・ 軌道要素

Epoch 2019 Feb. 6.0 TT = JDT 2458520.5
T 2019 Feb. 2.50542 TT                                  Williams
q   3.9211495            (2000.0)            P               Q
z  -0.0005357      Peri.  284.74987     +0.27591787     +0.96068745
 +/-0.0000005      Node     2.17726     -0.19811227     +0.08820217
e   1.0021007      Incl.   54.17876     -0.94054285     +0.26324894
From 564 observations 2016 Apr. 1-2019 Nov. 3, mean residual 0".4.

・ 星図

・ 光度変化

        m1 = 5.5 + 5 logΔ + 10.0 log r(t - 50)

---------------------------------------------------------------------

軌道要素はM.P.E.C. 2019-V116に掲載されたものです。
星図はステラナビゲータ Ver.10 (アストロアーツ) で作成したものです。
光度グラフはComet for Windowsで作成したものです。

---------------------------------------------------------------------

Copyright(C) Seiichi Yoshida (comet@aerith.net). All rights reserved.